Houston Hull, TX

11:52 PM CDT on October 16, 2017 (GMT -0500)
Sugar Land Municipal-Hull

Weather History for KSGR - December, 2012

Change the Weather History Date:

Tuesday, December 18, 2012

  Actual Average Record
Temperature  
Mean Temperature 63 °F -  
Max Temperature 80 °F 62 °F 80 °F (2012)
Min Temperature 46 °F 43 °F 26 °F (1979)
Degree Days  
Heating Degree Days 2    
Growing Degree Days 13 (Base 50)    
Moisture  
Dew Point 52 °F    
Average Humidity 74    
Maximum Humidity 100    
Minimum Humidity 39    
Precipitation  
Precipitation 0.00 in - - ()
Sea Level Pressure  
Sea Level Pressure 29.93 in    
Wind  
Wind Speed 4 mph (South)    
Max Wind Speed 16 mph    
Max Gust Speed 22 mph    
Visibility 9 miles    
Events      
Averages and records for this station are not official NWS values.
T = Trace of Precipitation, MM = Missing Value Source: NWS Daily Summary

Daily Weather History Graph

Daily Weather History Graph

Search for Another Location

Airport or City:

Trip Planner

Search our weather history database for the weather conditions in past years. The results will help you decide how hot, cold, wet, or windy it might be!

Date:

Astronomy

Dec. 18, 2012 Rise Set
Actual Time 7:12 AM CST 5:26 PM CST
Civil Twilight 6:45 AM CST 5:53 PM CST
Nautical Twilight 6:16 AM CST 6:23 PM CST
Astronomical Twilight 5:46 AM CST 6:52 PM CST
Moon 11:16 AM CST (12/18) 11:27 PM CST (12/18)
Length of Visible Light 11h 07m
Length of Day
10h 14m
Waxing Crescent, 35% of the Moon is Illuminated
Dec 18
Waxing Crescent
Dec 19
First Quarter
Dec 28
Full
Jan 4
Last Quarter
Jan 11
New

Hourly Weather History & Observations

Time (CST) Temp. Heat Index Dew Point Humidity Pressure Visibility Wind Dir Wind Speed Gust Speed Precip Events Conditions
12:53 AM 48.9 °F - 41.0 °F 74% 29.95 in 10.0 mi South 3.5 mph - N/A   Clear
3:53 AM 50.0 °F - 44.1 °F 80% 29.94 in 10.0 mi Calm Calm - N/A   Clear
4:53 AM 51.1 °F - 46.9 °F 86% 29.93 in 10.0 mi Calm Calm - N/A   Clear
5:53 AM 46.9 °F - 46.0 °F 97% 29.94 in 10.0 mi Calm Calm - N/A   Clear
6:34 AM 46.4 °F - 44.6 °F 93% 29.92 in 1.8 mi Calm Calm - N/A   Clear
6:49 AM 46.4 °F - 44.6 °F 93% 29.92 in 3.0 mi Calm Calm - N/A   Clear
6:53 AM 46.9 °F - 46.0 °F 97% 29.95 in 3.0 mi Calm Calm - N/A   Clear
7:13 AM 48.2 °F - 46.4 °F 93% 29.93 in 1.8 mi Calm Calm - N/A   Clear
7:22 AM 48.2 °F - 48.2 °F 100% 29.94 in 6.0 mi Calm Calm - N/A   Clear
7:53 AM 48.9 °F - 48.9 °F 100% 29.97 in 10.0 mi Calm Calm - N/A   Clear
8:53 AM 59.0 °F - 55.0 °F 87% 29.98 in 10.0 mi SSW 3.5 mph - N/A   Clear
9:53 AM 66.0 °F - 57.9 °F 75% 29.98 in 10.0 mi South 5.8 mph - N/A   Clear
10:53 AM 72.0 °F - 59.0 °F 64% 29.98 in 10.0 mi SSW 10.4 mph - N/A   Clear
11:53 AM 75.9 °F - 57.0 °F 52% 29.96 in 10.0 mi SSW 12.7 mph - N/A   Clear
12:53 PM 79.0 °F - 55.0 °F 44% 29.93 in 10.0 mi SSW 16.1 mph 21.9 mph N/A   Clear
1:53 PM 80.1 °F 80.0 °F 54.0 °F 40% 29.91 in 10.0 mi SSW 13.8 mph - N/A   Clear
2:53 PM 80.1 °F 79.9 °F 53.1 °F 39% 29.89 in 10.0 mi SSW 16.1 mph - N/A   Clear
3:53 PM 79.0 °F - 52.0 °F 39% 29.89 in 10.0 mi SSW 16.1 mph - N/A   Clear
4:53 PM 75.9 °F - 53.1 °F 45% 29.88 in 10.0 mi South 9.2 mph - N/A   Clear
5:53 PM 70.0 °F - 53.1 °F 55% 29.88 in 10.0 mi South 9.2 mph - N/A   Clear
6:53 PM 66.0 °F - 57.9 °F 75% 29.89 in 10.0 mi South 10.4 mph - N/A   Clear
7:53 PM 64.9 °F - 60.1 °F 84% 29.90 in 10.0 mi SSE 10.4 mph - N/A   Clear
8:53 PM 64.9 °F - 60.1 °F 84% 29.90 in 10.0 mi SSE 9.2 mph - N/A   Clear
9:53 PM 64.0 °F - 60.1 °F 87% 29.90 in 10.0 mi SSE 8.1 mph - N/A   Clear